Time,TemperatureF,DewpointF,PressureIn,WindDirection,WindDirectionDegrees,WindSpeedMPH,WindSpeedGustMPH,Humidity,HourlyPrecipIn,Conditions,Clouds,dailyrainin,SoftwareType,DateUTC
2013-01-01 00:00:00,19.6,14.9,30.06,West,259,3.0,8.0,82,0.00,,,0.00,meteohub,2013-01-01 05:00:00,
2013-01-01 00:01:00,19.6,14.9,30.06,West,270,2.0,7.0,82,0.00,,,0.00,meteohub,2013-01-01 05:01:00,
2013-01-01 00:06:00,19.6,15.3,30.06,SW,234,3.0,9.0,83,0.00,,,0.00,meteohub,2013-01-01 05:06:00,
2013-01-01 00:11:00,19.4,14.7,30.06,NW,307,4.0,9.0,82,0.00,,,0.00,meteohub,2013-01-01 05:11:00,
2013-01-01 00:16:00,19.6,14.7,30.05,West,260,5.0,9.0,81,0.00,,,0.00,meteohub,2013-01-01 05:16:00,
2013-01-01 00:21:00,19.6,14.4,30.05,West,261,2.0,8.0,80,0.00,,,0.00,meteohub,2013-01-01 05:21:00,
2013-01-01 00:26:00,19.6,14.2,30.05,NW,326,5.0,8.0,79,0.00,,,0.00,meteohub,2013-01-01 05:26:00,
2013-01-01 00:31:00,19.6,14.4,30.05,NE,54,2.0,6.0,80,0.00,,,0.00,meteohub,2013-01-01 05:31:00,
2013-01-01 00:36:00,19.6,14.9,30.05,North,357,3.0,7.0,82,0.00,,,0.00,meteohub,2013-01-01 05:36:00,
2013-01-01 00:41:00,19.4,15.1,30.05,WNW,294,1.0,7.0,83,0.00,,,0.00,meteohub,2013-01-01 05:41:00,
2013-01-01 00:46:00,19.2,14.9,30.05,West,265,1.0,7.0,83,0.00,,,0.00,meteohub,2013-01-01 05:46:00,
2013-01-01 00:51:00,19.2,14.9,30.05,NNE,19,1.0,3.0,83,0.00,,,0.00,meteohub,2013-01-01 05:51:00,
2013-01-01 00:56:00,19.2,14.9,30.05,West,268,0.0,3.0,83,0.00,,,0.00,meteohub,2013-01-01 05:56:00,
2013-01-01 01:01:00,19.4,14.7,30.05,WNW,290,0.0,4.0,82,0.00,,,0.00,meteohub,2013-01-01 06:01:00,
2013-01-01 01:06:00,19.6,14.7,30.05,WNW,302,2.0,6.0,81,0.00,,,0.00,meteohub,2013-01-01 06:06:00,
2013-01-01 01:12:00,19.6,14.2,30.05,NNW,335,1.0,6.0,79,0.00,,,0.00,meteohub,2013-01-01 06:12:00,
2013-01-01 01:17:00,19.6,13.8,30.05,NNW,342,2.0,4.0,78,0.00,,,0.00,meteohub,2013-01-01 06:17:00,
2013-01-01 01:22:00,19.8,13.6,30.05,West,273,0.0,5.0,77,0.00,,,0.00,meteohub,2013-01-01 06:22:00,
2013-01-01 01:27:00,19.8,13.5,30.05,WSW,258,0.0,5.0,76,0.00,,,0.00,meteohub,2013-01-01 06:27:00,
2013-01-01 01:32:00,19.8,13.5,30.06,NNW,328,3.0,5.0,76,0.00,,,0.00,meteohub,2013-01-01 06:32:00,
2013-01-01 01:37:00,19.8,13.1,30.06,NW,322,1.0,4.0,75,0.00,,,0.00,meteohub,2013-01-01 06:37:00,
2013-01-01 01:42:00,19.8,12.7,30.05,WNW,287,0.0,4.0,74,0.00,,,0.00,meteohub,2013-01-01 06:42:00,
2013-01-01 01:47:00,19.9,12.9,30.06,West,272,1.0,4.0,74,0.00,,,0.00,meteohub,2013-01-01 06:47:00,
2013-01-01 01:52:00,19.9,12.7,30.06,WSW,254,1.0,4.0,73,0.00,,,0.00,meteohub,2013-01-01 06:52:00,
2013-01-01 01:57:00,20.1,12.9,30.06,NW,307,4.0,4.0,73,0.00,,,0.00,meteohub,2013-01-01 06:57:00,
2013-01-01 02:02:00,20.1,12.9,30.06,SW,227,1.0,4.0,73,0.00,,,0.00,meteohub,2013-01-01 07:02:00,
2013-01-01 02:07:00,19.9,12.4,30.06,NNW,338,2.0,4.0,72,0.00,,,0.00,meteohub,2013-01-01 07:07:00,
2013-01-01 02:12:00,19.9,12.7,30.06,West,268,0.0,4.0,73,0.00,,,0.00,meteohub,2013-01-01 07:12:00,
2013-01-01 02:17:00,19.9,13.3,30.06,WSW,238,1.0,3.0,75,0.00,,,0.00,meteohub,2013-01-01 07:17:00,
2013-01-01 02:22:00,19.9,12.9,30.07,West,276,1.0,4.0,74,0.00,,,0.00,meteohub,2013-01-01 07:22:00,
2013-01-01 02:27:00,19.9,13.6,30.07,West,280,1.0,4.0,76,0.00,,,0.00,meteohub,2013-01-01 07:27:00,
2013-01-01 02:32:00,19.9,13.8,30.07,WNW,299,3.0,4.0,77,0.00,,,0.00,meteohub,2013-01-01 07:32:00,
2013-01-01 02:37:00,19.8,13.6,30.07,SW,231,3.0,6.0,77,0.00,,,0.00,meteohub,2013-01-01 07:37:00,
2013-01-01 02:42:00,19.8,14.0,30.07,WNW,293,2.0,6.0,78,0.00,,,0.00,meteohub,2013-01-01 07:42:00,
2013-01-01 02:47:00,19.8,14.0,30.08,NW,304,3.0,4.0,78,0.00,,,0.00,meteohub,2013-01-01 07:47:00,
2013-01-01 02:52:00,19.8,14.0,30.08,WNW,290,0.0,4.0,78,0.00,,,0.00,meteohub,2013-01-01 07:52:00,
2013-01-01 02:57:00,19.6,14.4,30.08,NW,304,1.0,4.0,80,0.00,,,0.00,meteohub,2013-01-01 07:57:00,
2013-01-01 03:02:00,19.8,14.4,30.09,WNW,297,2.0,3.0,79,0.00,,,0.00,meteohub,2013-01-01 08:02:00,
2013-01-01 03:07:00,19.6,14.4,30.09,WSW,258,2.0,5.0,80,0.00,,,0.00,meteohub,2013-01-01 08:07:00,
2013-01-01 03:12:00,19.6,14.7,30.09,West,265,3.0,8.0,81,0.00,,,0.00,meteohub,2013-01-01 08:12:00,
2013-01-01 03:17:00,19.6,14.7,30.09,WSW,247,0.0,8.0,81,0.00,,,0.00,meteohub,2013-01-01 08:17:00,
2013-01-01 03:22:00,19.6,14.7,30.09,NW,306,1.0,8.0,81,0.00,,,0.00,meteohub,2013-01-01 08:22:00,
2013-01-01 03:27:00,19.6,14.9,30.09,WSW,242,2.0,5.0,82,0.00,,,0.00,meteohub,2013-01-01 08:27:00,
2013-01-01 03:32:00,19.4,15.1,30.09,WSW,245,1.0,5.0,83,0.00,,,0.00,meteohub,2013-01-01 08:32:00,
2013-01-01 03:37:00,19.2,14.9,30.09,WSW,238,0.0,4.0,83,0.00,,,0.00,meteohub,2013-01-01 08:37:00,
2013-01-01 03:42:00,19.6,15.3,30.09,West,271,0.0,4.0,83,0.00,,,0.00,meteohub,2013-01-01 08:42:00,
2013-01-01 03:47:00,19.6,15.6,30.08,SSW,206,1.0,3.0,84,0.00,,,0.00,meteohub,2013-01-01 08:47:00,
2013-01-01 03:52:00,19.6,15.8,30.08,SW,231,0.0,2.0,85,0.00,,,0.00,meteohub,2013-01-01 08:52:00,
2013-01-01 03:57:00,19.6,15.8,30.09,SW,231,0.0,2.0,85,0.00,,,0.00,meteohub,2013-01-01 08:57:00,
2013-01-01 04:02:00,19.4,16.0,30.09,SSW,195,0.0,3.0,86,0.00,,,0.00,meteohub,2013-01-01 09:02:00,
2013-01-01 04:07:00,19.4,16.2,30.09,SW,234,1.0,3.0,87,0.00,,,0.00,meteohub,2013-01-01 09:07:00,
2013-01-01 04:12:00,19.4,16.0,30.09,SSW,199,1.0,3.0,86,0.00,,,0.00,meteohub,2013-01-01 09:12:00,
2013-01-01 04:17:00,19.4,16.0,30.09,SSW,197,0.0,2.0,86,0.00,,,0.00,meteohub,2013-01-01 09:17:00,
2013-01-01 04:22:00,19.4,16.0,30.09,SW,221,1.0,2.0,86,0.00,,,0.00,meteohub,2013-01-01 09:22:00,
2013-01-01 04:27:00,19.2,15.8,30.09,WSW,243,1.0,2.0,86,0.00,,,0.00,meteohub,2013-01-01 09:27:00,
2013-01-01 04:32:00,19.2,15.8,30.09,WNW,292,1.0,6.0,86,0.00,,,0.00,meteohub,2013-01-01 09:32:00,
2013-01-01 04:37:00,19.2,15.8,30.09,WSW,251,0.0,6.0,86,0.00,,,0.00,meteohub,2013-01-01 09:37:00,
2013-01-01 04:42:00,19.0,15.8,30.09,NW,307,4.0,6.0,87,0.00,,,0.00,meteohub,2013-01-01 09:42:00,
2013-01-01 04:47:00,19.0,15.8,30.09,WNW,300,1.0,6.0,87,0.00,,,0.00,meteohub,2013-01-01 09:47:00,
2013-01-01 04:52:00,19.0,15.6,30.09,WSW,251,2.0,6.0,86,0.00,,,0.00,meteohub,2013-01-01 09:52:00,
2013-01-01 04:57:00,19.0,15.6,30.09,NNW,328,2.0,6.0,86,0.00,,,0.00,meteohub,2013-01-01 09:57:00,
2013-01-01 05:02:00,19.0,15.3,30.09,WSW,250,1.0,5.0,85,0.00,,,0.00,meteohub,2013-01-01 10:02:00,
2013-01-01 05:07:00,19.0,15.6,30.09,WNW,286,2.0,6.0,86,0.00,,,0.00,meteohub,2013-01-01 10:07:00,
2013-01-01 05:12:00,19.0,15.8,30.09,West,281,1.0,6.0,87,0.00,,,0.00,meteohub,2013-01-01 10:12:00,
2013-01-01 05:17:00,19.0,15.8,30.09,West,260,5.0,6.0,87,0.00,,,0.00,meteohub,2013-01-01 10:17:00,
2013-01-01 05:22:00,18.9,15.6,30.09,NW,317,4.0,6.0,87,0.00,,,0.00,meteohub,2013-01-01 10:22:00,
2013-01-01 05:27:00,18.9,16.0,30.09,WSW,245,1.0,8.0,88,0.00,,,0.00,meteohub,2013-01-01 10:27:00,
2013-01-01 05:32:00,18.9,15.6,30.10,SSE,159,0.0,8.0,87,0.00,,,0.00,meteohub,2013-01-01 10:32:00,
2013-01-01 05:37:00,18.9,15.6,30.10,NW,318,4.0,7.0,87,0.00,,,0.00,meteohub,2013-01-01 10:37:00,
2013-01-01 05:42:00,18.9,15.4,30.10,West,279,2.0,7.0,86,0.00,,,0.00,meteohub,2013-01-01 10:42:00,
2013-01-01 05:47:00,18.9,15.4,30.10,NW,304,1.0,7.0,86,0.00,,,0.00,meteohub,2013-01-01 10:47:00,
2013-01-01 05:52:00,18.9,15.4,30.10,NW,310,3.0,7.0,86,0.00,,,0.00,meteohub,2013-01-01 10:52:00,
2013-01-01 05:57:00,18.9,15.4,30.10,North,355,2.0,5.0,86,0.00,,,0.00,meteohub,2013-01-01 10:57:00,
2013-01-01 06:02:00,18.7,15.4,30.10,NW,306,4.0,5.0,87,0.00,,,0.00,meteohub,2013-01-01 11:02:00,
2013-01-01 06:07:00,18.7,15.4,30.10,WSW,255,1.0,5.0,87,0.00,,,0.00,meteohub,2013-01-01 11:07:00,
2013-01-01 06:12:00,18.7,15.4,30.10,West,272,3.0,5.0,87,0.00,,,0.00,meteohub,2013-01-01 11:12:00,
2013-01-01 06:17:00,18.9,15.6,30.10,WNW,292,0.0,6.0,87,0.00,,,0.00,meteohub,2013-01-01 11:17:00,
2013-01-01 06:22:00,18.9,15.4,30.10,SW,233,2.0,6.0,86,0.00,,,0.00,meteohub,2013-01-01 11:22:00,
2013-01-01 06:27:00,18.9,15.4,30.11,North,349,0.0,6.0,86,0.00,,,0.00,meteohub,2013-01-01 11:27:00,
2013-01-01 06:32:00,18.9,15.4,30.11,WNW,294,0.0,5.0,86,0.00,,,0.00,meteohub,2013-01-01 11:32:00,
2013-01-01 06:37:00,18.9,15.1,30.11,SSW,195,0.0,5.0,85,0.00,,,0.00,meteohub,2013-01-01 11:37:00,
2013-01-01 06:42:00,18.9,14.9,30.10,NNE,20,1.0,3.0,84,0.00,,,0.00,meteohub,2013-01-01 11:42:00,
2013-01-01 06:47:00,18.9,15.1,30.11,NW,320,0.0,3.0,85,0.00,,,0.00,meteohub,2013-01-01 11:47:00,
2013-01-01 06:52:00,18.9,15.1,30.11,NW,316,0.0,3.0,85,0.00,,,0.00,meteohub,2013-01-01 11:52:00,
2013-01-01 06:57:00,18.9,15.1,30.11,West,280,0.0,3.0,85,0.00,,,0.00,meteohub,2013-01-01 11:57:00,
2013-01-01 07:02:00,18.9,14.9,30.11,WNW,290,0.0,2.0,84,0.00,,,0.00,meteohub,2013-01-01 12:02:00,
2013-01-01 07:07:00,18.9,14.5,30.11,NNE,24,0.0,2.0,83,0.00,,,0.00,meteohub,2013-01-01 12:07:00,
2013-01-01 07:12:00,19.0,14.7,30.11,East,85,1.0,2.0,83,0.00,,,0.00,meteohub,2013-01-01 12:12:00,
2013-01-01 07:17:00,18.9,15.1,30.11,North,3,1.0,2.0,85,0.00,,,0.00,meteohub,2013-01-01 12:17:00,
2013-01-01 07:22:00,18.7,14.9,30.12,North,351,0.0,3.0,85,0.00,,,0.00,meteohub,2013-01-01 12:22:00,
2013-01-01 07:27:00,18.9,15.4,30.11,North,358,0.0,3.0,86,0.00,,,0.00,meteohub,2013-01-01 12:27:00,
2013-01-01 07:32:00,18.7,15.3,30.12,NNE,30,1.0,3.0,86,0.00,,,0.00,meteohub,2013-01-01 12:32:00,
2013-01-01 07:37:00,18.7,15.3,30.12,NW,323,0.0,4.0,86,0.00,,,0.00,meteohub,2013-01-01 12:37:00,
2013-01-01 07:42:00,18.5,15.3,30.12,NE,38,0.0,4.0,87,0.00,,,0.00,meteohub,2013-01-01 12:42:00,
2013-01-01 07:47:00,18.5,15.3,30.12,NNE,17,0.0,3.0,87,0.00,,,0.00,meteohub,2013-01-01 12:47:00,
2013-01-01 07:52:00,18.3,15.1,30.12,ENE,71,0.0,2.0,87,0.00,,,0.00,meteohub,2013-01-01 12:52:00,
2013-01-01 07:57:00,18.3,15.4,30.12,East,93,0.0,2.0,88,0.00,,,0.00,meteohub,2013-01-01 12:57:00,
2013-01-01 08:02:00,18.3,15.4,30.12,East,93,1.0,2.0,88,0.00,,,0.00,meteohub,2013-01-01 13:02:00,
2013-01-01 08:07:00,18.3,15.4,30.13,ENE,62,0.0,2.0,88,0.00,,,0.00,meteohub,2013-01-01 13:07:00,
2013-01-01 08:12:00,18.1,15.3,30.13,NE,54,0.0,2.0,88,0.00,,,0.00,meteohub,2013-01-01 13:12:00,
2013-01-01 08:17:00,18.1,15.3,30.12,East,86,0.0,2.0,88,0.00,,,0.00,meteohub,2013-01-01 13:17:00,
2013-01-01 08:23:00,18.1,15.3,30.12,East,86,0.0,2.0,88,0.00,,,0.00,meteohub,2013-01-01 13:23:00,
2013-01-01 08:28:00,18.1,15.3,30.12,ENE,77,1.0,2.0,88,0.00,,,0.00,meteohub,2013-01-01 13:28:00,
2013-01-01 08:32:00,18.1,15.3,30.12,East,86,1.0,2.0,88,0.00,,,0.00,meteohub,2013-01-01 13:32:00,
2013-01-01 08:38:00,18.1,15.3,30.12,ENE,71,0.0,2.0,88,0.00,,,0.00,meteohub,2013-01-01 13:38:00,
2013-01-01 08:43:00,18.1,15.3,30.12,East,96,0.0,2.0,88,0.00,,,0.00,meteohub,2013-01-01 13:43:00,
2013-01-01 08:48:00,18.1,15.3,30.12,SSW,209,1.0,2.0,88,0.00,,,0.00,meteohub,2013-01-01 13:48:00,
2013-01-01 08:53:00,18.1,14.9,30.12,WSW,250,0.0,2.0,87,0.00,,,0.00,meteohub,2013-01-01 13:53:00,
2013-01-01 08:58:00,18.3,15.4,30.12,WSW,251,0.0,2.0,88,0.00,,,0.00,meteohub,2013-01-01 13:58:00,
2013-01-01 09:03:00,18.5,15.3,30.12,SW,224,0.0,2.0,87,0.00,,,0.00,meteohub,2013-01-01 14:03:00,
2013-01-01 09:08:00,18.7,15.4,30.13,SW,224,0.0,0.0,87,0.00,,,0.00,meteohub,2013-01-01 14:08:00,
2013-01-01 09:13:00,18.9,15.6,30.13,SSE,160,0.0,1.0,87,0.00,,,0.00,meteohub,2013-01-01 14:13:00,
2013-01-01 09:18:00,18.9,15.4,30.13,East,96,0.0,1.0,86,0.00,,,0.00,meteohub,2013-01-01 14:18:00,
2013-01-01 09:23:00,19.0,15.3,30.12,East,96,0.0,1.0,85,0.00,,,0.00,meteohub,2013-01-01 14:23:00,
2013-01-01 09:28:00,19.0,15.3,30.13,South,176,0.0,1.0,85,0.00,,,0.00,meteohub,2013-01-01 14:28:00,
2013-01-01 09:33:00,19.2,15.8,30.13,SSW,204,0.0,1.0,86,0.00,,,0.00,meteohub,2013-01-01 14:33:00,
2013-01-01 09:38:00,19.2,15.4,30.13,SW,221,0.0,1.0,85,0.00,,,0.00,meteohub,2013-01-01 14:38:00,
2013-01-01 09:43:00,19.4,15.6,30.13,South,184,0.0,1.0,85,0.00,,,0.00,meteohub,2013-01-01 14:43:00,
2013-01-01 09:48:00,19.6,15.8,30.13,SSE,149,0.0,1.0,85,0.00,,,0.00,meteohub,2013-01-01 14:48:00,
2013-01-01 09:53:00,19.8,16.0,30.14,South,188,1.0,2.0,85,0.00,,,0.00,meteohub,2013-01-01 14:53:00,
2013-01-01 09:58:00,19.8,16.3,30.13,SSE,166,1.0,3.0,86,0.00,,,0.00,meteohub,2013-01-01 14:58:00,
2013-01-01 10:03:00,19.9,16.5,30.13,SSE,162,2.0,3.0,86,0.00,,,0.00,meteohub,2013-01-01 15:03:00,
2013-01-01 10:08:00,20.3,16.5,30.13,South,189,0.0,3.0,85,0.00,,,0.00,meteohub,2013-01-01 15:08:00,
2013-01-01 10:13:00,20.5,16.3,30.14,ENE,66,0.0,3.0,84,0.00,,,0.00,meteohub,2013-01-01 15:13:00,
2013-01-01 10:18:00,20.5,16.3,30.14,SSW,202,1.0,3.0,84,0.00,,,0.00,meteohub,2013-01-01 15:18:00,
2013-01-01 10:23:00,20.7,16.5,30.14,SSW,203,1.0,3.0,84,0.00,,,0.00,meteohub,2013-01-01 15:23:00,
2013-01-01 10:28:00,20.7,16.3,30.14,SSW,201,0.0,4.0,83,0.00,,,0.00,meteohub,2013-01-01 15:28:00,
2013-01-01 10:33:00,20.8,16.5,30.14,ESE,120,0.0,4.0,83,0.00,,,0.00,meteohub,2013-01-01 15:33:00,
2013-01-01 10:38:00,21.0,16.2,30.14,SSE,164,0.0,4.0,81,0.00,,,0.00,meteohub,2013-01-01 15:38:00,
2013-01-01 10:43:00,21.4,16.5,30.14,SSW,192,0.0,4.0,81,0.00,,,0.00,meteohub,2013-01-01 15:43:00,
2013-01-01 10:48:00,21.6,16.9,30.14,SSW,202,0.0,2.0,82,0.00,,,0.00,meteohub,2013-01-01 15:48:00,
2013-01-01 10:53:00,21.7,16.5,30.14,East,89,0.0,2.0,80,0.00,,,0.00,meteohub,2013-01-01 15:53:00,
2013-01-01 10:58:00,22.1,17.2,30.14,ENE,72,0.0,2.0,81,0.00,,,0.00,meteohub,2013-01-01 15:58:00,
2013-01-01 11:03:00,22.3,17.1,30.14,SSW,201,0.0,2.0,80,0.00,,,0.00,meteohub,2013-01-01 16:03:00,
2013-01-01 11:08:00,22.5,17.2,30.14,SE,127,0.0,1.0,80,0.00,,,0.00,meteohub,2013-01-01 16:08:00,
2013-01-01 11:13:00,22.6,17.4,30.14,SSE,155,0.0,1.0,80,0.00,,,0.00,meteohub,2013-01-01 16:13:00,
2013-01-01 11:18:00,23.0,17.8,30.14,SE,138,0.0,1.0,80,0.00,,,0.00,meteohub,2013-01-01 16:18:00,
2013-01-01 11:23:00,23.2,18.0,30.14,SSW,200,0.0,1.0,80,0.00,,,0.00,meteohub,2013-01-01 16:23:00,
2013-01-01 11:28:00,23.2,17.6,30.13,South,181,1.0,1.0,79,0.00,,,0.00,meteohub,2013-01-01 16:28:00,
2013-01-01 11:33:00,23.0,16.5,30.13,WNW,287,0.0,2.0,76,0.00,,,0.00,meteohub,2013-01-01 16:33:00,
2013-01-01 11:38:00,22.8,16.7,30.12,WSW,237,0.0,2.0,77,0.00,,,0.00,meteohub,2013-01-01 16:38:00,
2013-01-01 11:43:00,22.8,16.3,30.12,SW,218,1.0,2.0,76,0.00,,,0.00,meteohub,2013-01-01 16:43:00,
2013-01-01 11:48:00,22.6,16.5,30.12,South,178,1.0,3.0,77,0.00,,,0.00,meteohub,2013-01-01 16:48:00,
2013-01-01 11:53:00,22.5,16.3,30.12,WSW,242,0.0,4.0,77,0.00,,,0.00,meteohub,2013-01-01 16:53:00,
2013-01-01 11:58:00,22.6,16.9,30.12,NW,313,1.0,4.0,78,0.00,,,0.00,meteohub,2013-01-01 16:58:00,
2013-01-01 12:03:00,22.6,16.2,30.11,SW,220,1.0,4.0,76,0.00,,,0.00,meteohub,2013-01-01 17:03:00,
2013-01-01 12:09:00,22.6,16.9,30.11,SW,220,1.0,4.0,78,0.00,,,0.00,meteohub,2013-01-01 17:09:00,
2013-01-01 12:13:00,22.8,17.1,30.11,SE,141,2.0,4.0,78,0.00,,,0.00,meteohub,2013-01-01 17:13:00,
2013-01-01 12:19:00,23.2,17.4,30.10,West,278,1.0,4.0,78,0.00,,,0.00,meteohub,2013-01-01 17:19:00,
2013-01-01 12:24:00,23.2,16.7,30.10,West,268,3.0,4.0,76,0.00,,,0.00,meteohub,2013-01-01 17:24:00,
2013-01-01 12:29:00,23.2,17.1,30.10,SW,231,1.0,3.0,77,0.00,,,0.00,meteohub,2013-01-01 17:29:00,
2013-01-01 12:34:00,23.2,16.7,30.09,SW,220,1.0,6.0,76,0.00,,,0.00,meteohub,2013-01-01 17:34:00,
2013-01-01 12:39:00,23.2,16.7,30.09,WNW,290,2.0,6.0,76,0.00,,,0.00,meteohub,2013-01-01 17:39:00,
2013-01-01 12:44:00,23.2,16.7,30.09,SW,221,4.0,6.0,76,0.00,,,0.00,meteohub,2013-01-01 17:44:00,
2013-01-01 12:49:00,22.8,16.3,30.08,WNW,302,2.0,5.0,76,0.00,,,0.00,meteohub,2013-01-01 17:49:00,
2013-01-01 12:54:00,22.8,17.2,30.08,West,275,3.0,5.0,79,0.00,,,0.00,meteohub,2013-01-01 17:54:00,
2013-01-01 12:59:00,22.8,16.7,30.08,SW,217,1.0,5.0,77,0.00,,,0.00,meteohub,2013-01-01 17:59:00,
2013-01-01 13:04:00,23.0,17.2,30.07,South,190,1.0,5.0,78,0.00,,,0.00,meteohub,2013-01-01 18:04:00,
2013-01-01 13:09:00,23.2,17.4,30.07,WSW,244,2.0,5.0,78,0.00,,,0.00,meteohub,2013-01-01 18:09:00,
2013-01-01 13:14:00,23.0,17.4,30.07,WSW,241,3.0,5.0,79,0.00,,,0.00,meteohub,2013-01-01 18:14:00,
2013-01-01 13:19:00,23.0,17.8,30.06,SW,214,0.0,5.0,80,0.00,,,0.00,meteohub,2013-01-01 18:19:00,
2013-01-01 13:24:00,23.4,17.8,30.06,South,181,1.0,5.0,79,0.00,,,0.00,meteohub,2013-01-01 18:24:00,
2013-01-01 13:29:00,23.5,17.8,30.06,SE,138,0.0,5.0,78,0.00,,,0.00,meteohub,2013-01-01 18:29:00,
2013-01-01 13:34:00,23.5,17.1,30.06,WSW,250,1.0,4.0,76,0.00,,,0.00,meteohub,2013-01-01 18:34:00,
2013-01-01 13:39:00,23.5,16.2,30.06,WSW,239,3.0,4.0,73,0.00,,,0.00,meteohub,2013-01-01 18:39:00,
2013-01-01 13:44:00,23.7,16.9,30.05,WSW,251,1.0,5.0,75,0.00,,,0.00,meteohub,2013-01-01 18:44:00,
2013-01-01 13:49:00,23.9,16.5,30.05,South,183,1.0,5.0,73,0.00,,,0.00,meteohub,2013-01-01 18:49:00,
2013-01-01 13:54:00,23.7,15.4,30.05,West,262,3.0,5.0,70,0.00,,,0.00,meteohub,2013-01-01 18:54:00,
2013-01-01 13:59:00,23.7,15.4,30.05,SE,142,1.0,5.0,70,0.00,,,0.00,meteohub,2013-01-01 18:59:00,
2013-01-01 14:04:00,23.7,15.6,30.04,North,10,2.0,7.0,71,0.00,,,0.00,meteohub,2013-01-01 19:04:00,
2013-01-01 14:09:00,23.7,15.6,30.04,NW,325,0.0,7.0,71,0.00,,,0.00,meteohub,2013-01-01 19:09:00,
2013-01-01 14:14:00,23.9,15.8,30.04,WNW,300,3.0,7.0,71,0.00,,,0.00,meteohub,2013-01-01 19:14:00,
2013-01-01 14:19:00,23.9,16.2,30.04,SW,233,1.0,4.0,72,0.00,,,0.00,meteohub,2013-01-01 19:19:00,
2013-01-01 14:24:00,24.1,16.3,30.04,NNW,339,2.0,6.0,72,0.00,,,0.00,meteohub,2013-01-01 19:24:00,
2013-01-01 14:29:00,23.9,16.9,30.04,West,261,2.0,6.0,74,0.00,,,0.00,meteohub,2013-01-01 19:29:00,
2013-01-01 14:34:00,23.7,17.2,30.04,WNW,294,4.0,6.0,76,0.00,,,0.00,meteohub,2013-01-01 19:34:00,
2013-01-01 14:39:00,23.5,17.1,30.04,West,270,3.0,6.0,76,0.00,,,0.00,meteohub,2013-01-01 19:39:00,
2013-01-01 14:44:00,23.5,17.4,30.04,West,280,2.0,6.0,77,0.00,,,0.00,meteohub,2013-01-01 19:44:00,
2013-01-01 14:49:00,23.5,17.4,30.04,WSW,241,0.0,6.0,77,0.00,,,0.00,meteohub,2013-01-01 19:49:00,
2013-01-01 14:54:00,23.5,17.1,30.04,WNW,282,1.0,5.0,76,0.00,,,0.00,meteohub,2013-01-01 19:54:00,
2013-01-01 14:59:00,23.7,17.6,30.04,West,271,3.0,5.0,77,0.00,,,0.00,meteohub,2013-01-01 19:59:00,
2013-01-01 15:04:00,23.7,17.6,30.04,SW,229,3.0,5.0,77,0.00,,,0.00,meteohub,2013-01-01 20:04:00,
2013-01-01 15:09:00,23.5,17.4,30.04,NNE,32,0.0,5.0,77,0.00,,,0.00,meteohub,2013-01-01 20:09:00,
2013-01-01 15:15:00,23.5,17.4,30.04,West,268,1.0,5.0,77,0.00,,,0.00,meteohub,2013-01-01 20:15:00,
2013-01-01 15:20:00,23.4,17.6,30.04,NNE,29,2.0,5.0,78,0.00,,,0.00,meteohub,2013-01-01 20:20:00,
2013-01-01 15:25:00,23.5,17.4,30.04,WNW,287,2.0,7.0,77,0.00,,,0.00,meteohub,2013-01-01 20:25:00,
2013-01-01 15:30:00,23.4,16.0,30.05,SSW,205,5.0,7.0,73,0.00,,,0.00,meteohub,2013-01-01 20:30:00,
2013-01-01 15:35:00,23.4,16.0,30.05,WSW,245,6.0,7.0,73,0.00,,,0.00,meteohub,2013-01-01 20:35:00,
2013-01-01 15:40:00,23.2,15.8,30.04,WNW,290,2.0,9.0,73,0.00,,,0.00,meteohub,2013-01-01 20:40:00,
2013-01-01 15:45:00,23.2,15.8,30.05,West,265,2.0,9.0,73,0.00,,,0.00,meteohub,2013-01-01 20:45:00,
2013-01-01 15:50:00,23.2,15.8,30.05,WSW,251,2.0,9.0,73,0.00,,,0.00,meteohub,2013-01-01 20:50:00,
2013-01-01 15:55:00,23.0,16.3,30.04,WNW,295,2.0,9.0,75,0.00,,,0.00,meteohub,2013-01-01 20:55:00,
2013-01-01 16:00:00,22.8,16.3,30.04,NNW,340,2.0,9.0,76,0.00,,,0.00,meteohub,2013-01-01 21:00:00,
2013-01-01 16:05:00,22.8,16.2,30.05,WSW,243,3.0,8.0,75,0.00,,,0.00,meteohub,2013-01-01 21:05:00,
2013-01-01 16:10:00,23.2,16.7,30.05,West,259,0.0,7.0,76,0.00,,,0.00,meteohub,2013-01-01 21:10:00,
2013-01-01 16:15:00,23.0,16.3,30.05,WSW,258,5.0,6.0,75,0.00,,,0.00,meteohub,2013-01-01 21:15:00,
2013-01-01 16:20:00,22.8,16.2,30.05,SSW,209,4.0,5.0,75,0.00,,,0.00,meteohub,2013-01-01 21:20:00,
2013-01-01 16:25:00,22.8,16.3,30.05,SW,229,2.0,5.0,76,0.00,,,0.00,meteohub,2013-01-01 21:25:00,
2013-01-01 16:30:00,22.8,16.7,30.05,WNW,287,0.0,5.0,77,0.00,,,0.00,meteohub,2013-01-01 21:30:00,
2013-01-01 16:35:00,22.8,16.7,30.05,WSW,251,3.0,4.0,77,0.00,,,0.00,meteohub,2013-01-01 21:35:00,
2013-01-01 16:40:00,22.8,16.7,30.05,NW,311,3.0,5.0,77,0.00,,,0.00,meteohub,2013-01-01 21:40:00,
2013-01-01 16:45:00,22.6,16.5,30.05,NW,322,1.0,6.0,77,0.00,,,0.00,meteohub,2013-01-01 21:45:00,
2013-01-01 16:50:00,22.6,16.5,30.05,WNW,302,1.0,6.0,77,0.00,,,0.00,meteohub,2013-01-01 21:50:00,
2013-01-01 16:55:00,22.6,16.9,30.05,WSW,237,1.0,6.0,78,0.00,,,0.00,meteohub,2013-01-01 21:55:00,
2013-01-01 17:00:00,22.6,17.1,30.05,NW,311,2.0,6.0,79,0.00,,,0.00,meteohub,2013-01-01 22:00:00,
2013-01-01 17:05:00,22.6,17.1,30.05,West,278,0.0,6.0,79,0.00,,,0.00,meteohub,2013-01-01 22:05:00,
2013-01-01 17:10:00,22.6,17.4,30.05,North,7,0.0,3.0,80,0.00,,,0.00,meteohub,2013-01-01 22:10:00,
2013-01-01 17:15:00,22.5,16.9,30.05,SW,231,0.0,6.0,79,0.00,,,0.00,meteohub,2013-01-01 22:15:00,
2013-01-01 17:20:00,22.5,16.9,30.06,WSW,248,0.0,6.0,79,0.00,,,0.00,meteohub,2013-01-01 22:20:00,
2013-01-01 17:25:00,22.5,16.7,30.05,NNE,19,2.0,6.0,78,0.00,,,0.00,meteohub,2013-01-01 22:25:00,
2013-01-01 17:30:00,22.5,16.3,30.05,NNW,342,2.0,6.0,77,0.00,,,0.00,meteohub,2013-01-01 22:30:00,
2013-01-01 17:35:00,22.5,16.7,30.05,SSW,205,4.0,6.0,78,0.00,,,0.00,meteohub,2013-01-01 22:35:00,
2013-01-01 17:40:00,22.3,16.2,30.05,NNW,337,1.0,4.0,77,0.00,,,0.00,meteohub,2013-01-01 22:40:00,
2013-01-01 17:45:00,22.3,16.7,30.05,SW,228,1.0,4.0,79,0.00,,,0.00,meteohub,2013-01-01 22:45:00,
2013-01-01 17:50:00,22.3,16.5,30.05,NNE,17,3.0,4.0,78,0.00,,,0.00,meteohub,2013-01-01 22:50:00,
2013-01-01 17:55:00,22.3,16.5,30.05,ENE,71,3.0,4.0,78,0.00,,,0.00,meteohub,2013-01-01 22:55:00,
2013-01-01 18:00:00,22.3,16.2,30.05,NNE,28,3.0,4.0,77,0.00,,,0.00,meteohub,2013-01-01 23:00:00,
2013-01-01 18:05:00,22.1,15.6,30.05,WSW,242,1.0,4.0,76,0.00,,,0.00,meteohub,2013-01-01 23:05:00,
2013-01-01 18:10:00,22.1,16.0,30.05,SSW,207,1.0,6.0,77,0.00,,,0.00,meteohub,2013-01-01 23:10:00,
2013-01-01 18:15:00,22.3,16.2,30.04,SW,226,2.0,6.0,77,0.00,,,0.00,meteohub,2013-01-01 23:15:00,
2013-01-01 18:20:00,22.1,16.0,30.04,NW,326,1.0,8.0,77,0.00,,,0.00,meteohub,2013-01-01 23:20:00,
2013-01-01 18:25:00,22.1,16.3,30.05,WNW,288,3.0,8.0,78,0.00,,,0.00,meteohub,2013-01-01 23:25:00,
2013-01-01 18:30:00,21.9,16.2,30.05,South,183,4.0,4.0,78,0.00,,,0.00,meteohub,2013-01-01 23:30:00,
2013-01-01 18:35:00,21.9,16.2,30.04,North,349,1.0,5.0,78,0.00,,,0.00,meteohub,2013-01-01 23:35:00,
2013-01-01 18:40:00,21.9,16.2,30.04,SSW,202,2.0,6.0,78,0.00,,,0.00,meteohub,2013-01-01 23:40:00,
2013-01-01 18:45:00,21.9,16.3,30.04,ESE,122,1.0,6.0,79,0.00,,,0.00,meteohub,2013-01-01 23:45:00,
2013-01-01 18:50:00,21.9,16.3,30.04,NW,320,1.0,6.0,79,0.00,,,0.00,meteohub,2013-01-01 23:50:00,
2013-01-01 18:55:00,21.9,16.3,30.04,NNE,19,0.0,6.0,79,0.00,,,0.00,meteohub,2013-01-01 23:55:00,
2013-01-01 19:00:00,21.7,16.0,30.04,ENE,72,0.0,6.0,78,0.00,,,0.00,meteohub,2013-01-02 00:00:00,
2013-01-01 19:05:00,21.7,16.2,30.04,NW,306,2.0,7.0,79,0.00,,,0.00,meteohub,2013-01-02 00:05:00,
2013-01-01 19:11:00,21.6,16.0,30.04,NNW,335,5.0,7.0,79,0.00,,,0.00,meteohub,2013-01-02 00:11:00,
2013-01-01 19:16:00,21.6,16.3,30.04,NNW,328,1.0,7.0,80,0.00,,,0.00,meteohub,2013-01-02 00:16:00,
2013-01-01 19:21:00,21.6,16.3,30.04,NW,326,0.0,7.0,80,0.00,,,0.00,meteohub,2013-01-02 00:21:00,
2013-01-01 19:25:00,21.6,16.0,30.05,SSW,193,0.0,7.0,79,0.00,,,0.00,meteohub,2013-01-02 00:25:00,
2013-01-01 19:30:00,21.6,16.0,30.04,NW,313,0.0,5.0,79,0.00,,,0.00,meteohub,2013-01-02 00:30:00,
2013-01-01 19:36:00,21.4,16.2,30.04,WNW,290,1.0,5.0,80,0.00,,,0.00,meteohub,2013-01-02 00:36:00,
2013-01-01 19:41:00,21.4,16.2,30.04,NNW,332,2.0,5.0,80,0.00,,,0.00,meteohub,2013-01-02 00:41:00,
2013-01-01 19:46:00,21.2,16.0,30.04,ENE,67,2.0,7.0,80,0.00,,,0.00,meteohub,2013-01-02 00:46:00,
2013-01-01 19:51:00,21.2,15.8,30.04,West,271,3.0,9.0,79,0.00,,,0.00,meteohub,2013-01-02 00:51:00,
2013-01-01 19:56:00,21.0,15.6,30.04,NNE,31,2.0,9.0,79,0.00,,,0.00,meteohub,2013-01-02 00:56:00,
2013-01-01 20:01:00,21.0,15.3,30.04,SW,219,0.0,9.0,78,0.00,,,0.00,meteohub,2013-01-02 01:01:00,
2013-01-01 20:06:00,20.8,15.1,30.04,SSW,199,0.0,8.0,78,0.00,,,0.00,meteohub,2013-01-02 01:06:00,
2013-01-01 20:11:00,20.8,15.4,30.04,SSW,213,1.0,8.0,79,0.00,,,0.00,meteohub,2013-01-02 01:11:00,
2013-01-01 20:16:00,20.7,15.3,30.04,WNW,293,1.0,7.0,79,0.00,,,0.00,meteohub,2013-01-02 01:16:00,
2013-01-01 20:21:00,20.7,15.4,30.04,ESE,107,1.0,8.0,80,0.00,,,0.00,meteohub,2013-01-02 01:21:00,
2013-01-01 20:26:00,20.7,15.4,30.04,South,175,2.0,8.0,80,0.00,,,0.00,meteohub,2013-01-02 01:26:00,
2013-01-01 20:31:00,20.7,15.4,30.04,WSW,248,3.0,8.0,80,0.00,,,0.00,meteohub,2013-01-02 01:31:00,
2013-01-01 20:36:00,20.7,15.4,30.04,NNW,347,2.0,5.0,80,0.00,,,0.00,meteohub,2013-01-02 01:36:00,
2013-01-01 20:41:00,20.7,15.8,30.04,South,176,0.0,5.0,81,0.00,,,0.00,meteohub,2013-01-02 01:41:00,
2013-01-01 20:46:00,20.7,15.4,30.04,East,89,1.0,4.0,80,0.00,,,0.00,meteohub,2013-01-02 01:46:00,
2013-01-01 20:51:00,20.7,15.4,30.04,SSE,148,1.0,7.0,80,0.00,,,0.00,meteohub,2013-01-02 01:51:00,
2013-01-01 20:56:00,20.7,15.8,30.04,WSW,241,0.0,7.0,81,0.00,,,0.00,meteohub,2013-01-02 01:56:00,
2013-01-01 21:01:00,20.7,15.8,30.04,WNW,296,0.0,4.0,81,0.00,,,0.00,meteohub,2013-01-02 02:01:00,
2013-01-01 21:06:00,20.7,16.0,30.04,NE,56,0.0,4.0,82,0.00,,,0.00,meteohub,2013-01-02 02:06:00,
2013-01-01 21:11:00,20.7,16.3,30.03,SSW,196,0.0,3.0,83,0.00,,,0.00,meteohub,2013-01-02 02:11:00,
2013-01-01 21:16:00,20.7,16.0,30.03,SSE,147,2.0,5.0,82,0.00,,,0.00,meteohub,2013-01-02 02:16:00,
2013-01-01 21:21:00,20.7,16.3,30.03,SE,140,2.0,5.0,83,0.00,,,0.00,meteohub,2013-01-02 02:21:00,
2013-01-01 21:26:00,20.7,16.3,30.03,SE,127,2.0,4.0,83,0.00,,,0.00,meteohub,2013-01-02 02:26:00,
2013-01-01 21:31:00,20.7,16.3,30.03,ESE,108,2.0,5.0,83,0.00,,,0.00,meteohub,2013-01-02 02:31:00,
2013-01-01 21:36:00,20.8,16.7,30.03,South,178,2.0,5.0,84,0.00,,,0.00,meteohub,2013-01-02 02:36:00,
2013-01-01 21:41:00,20.8,16.7,30.03,NE,52,1.0,5.0,84,0.00,,,0.00,meteohub,2013-01-02 02:41:00,
2013-01-01 21:46:00,20.7,16.3,30.03,East,88,4.0,4.0,83,0.00,,,0.00,meteohub,2013-01-02 02:46:00,
2013-01-01 21:51:00,20.8,17.1,30.03,SW,224,0.0,4.0,85,0.00,,,0.00,meteohub,2013-01-02 02:51:00,
2013-01-01 21:56:00,20.8,16.7,30.02,NNE,28,0.0,4.0,84,0.00,,,0.00,meteohub,2013-01-02 02:56:00,
2013-01-01 22:01:00,20.8,16.7,30.02,ESE,123,0.0,4.0,84,0.00,,,0.00,meteohub,2013-01-02 03:01:00,
2013-01-01 22:06:00,20.8,17.1,30.02,North,352,0.0,3.0,85,0.00,,,0.00,meteohub,2013-01-02 03:06:00,
2013-01-01 22:11:00,20.8,16.7,30.02,NW,314,0.0,4.0,84,0.00,,,0.00,meteohub,2013-01-02 03:11:00,
2013-01-01 22:16:00,20.8,17.1,30.02,NE,43,1.0,5.0,85,0.00,,,0.00,meteohub,2013-01-02 03:16:00,
2013-01-01 22:21:00,21.0,17.2,30.03,ESE,123,1.0,5.0,85,0.00,,,0.00,meteohub,2013-01-02 03:21:00,
2013-01-01 22:26:00,21.0,16.9,30.03,SE,144,0.0,3.0,84,0.00,,,0.00,meteohub,2013-01-02 03:26:00,
2013-01-01 22:31:00,21.0,17.2,30.02,ENE,71,0.0,3.0,85,0.00,,,0.00,meteohub,2013-01-02 03:31:00,
2013-01-01 22:36:00,21.2,17.1,30.03,ESE,112,0.0,2.0,84,0.00,,,0.00,meteohub,2013-01-02 03:36:00,
2013-01-01 22:41:00,21.4,17.2,30.02,East,91,0.0,3.0,84,0.00,,,0.00,meteohub,2013-01-02 03:41:00,
2013-01-01 22:46:00,21.4,17.1,30.03,WSW,238,0.0,3.0,83,0.00,,,0.00,meteohub,2013-01-02 03:46:00,
2013-01-01 22:51:00,21.6,17.4,30.03,NNE,26,1.0,5.0,84,0.00,,,0.00,meteohub,2013-01-02 03:51:00,
2013-01-01 22:56:00,21.6,17.2,30.03,SE,133,0.0,5.0,83,0.00,,,0.00,meteohub,2013-01-02 03:56:00,
2013-01-01 23:01:00,21.6,17.2,30.03,NW,309,2.0,5.0,83,0.00,,,0.00,meteohub,2013-01-02 04:01:00,
2013-01-01 23:06:00,21.6,17.2,30.02,SSW,212,1.0,4.0,83,0.00,,,0.00,meteohub,2013-01-02 04:06:00,
2013-01-01 23:11:00,21.7,17.1,30.02,South,169,3.0,6.0,82,0.00,,,0.00,meteohub,2013-01-02 04:11:00,
2013-01-01 23:16:00,21.7,17.4,30.02,South,175,0.0,6.0,83,0.00,,,0.00,meteohub,2013-01-02 04:16:00,
2013-01-01 23:22:00,21.7,17.1,30.03,South,184,2.0,6.0,82,0.00,,,0.00,meteohub,2013-01-02 04:22:00,
2013-01-01 23:27:00,21.7,17.4,30.02,South,189,1.0,4.0,83,0.00,,,0.00,meteohub,2013-01-02 04:27:00,
2013-01-01 23:31:00,21.7,17.1,30.02,WSW,249,0.0,4.0,82,0.00,,,0.00,meteohub,2013-01-02 04:31:00,
2013-01-01 23:37:00,21.7,17.1,30.02,WSW,255,3.0,4.0,82,0.00,,,0.00,meteohub,2013-01-02 04:37:00,
2013-01-01 23:42:00,21.7,17.1,30.02,SE,145,0.0,4.0,82,0.00,,,0.00,meteohub,2013-01-02 04:42:00,
2013-01-01 23:47:00,21.7,17.4,30.02,South,175,2.0,4.0,83,0.00,,,0.00,meteohub,2013-01-02 04:47:00,
2013-01-01 23:52:00,21.7,17.4,30.02,SSE,152,1.0,4.0,83,0.00,,,0.00,meteohub,2013-01-02 04:52:00,
2013-01-01 23:57:00,21.6,17.2,30.01,SW,220,1.0,4.0,83,0.00,,,0.00,meteohub,2013-01-02 04:57:00,